User: anonymous   Login
Location: Unspecified
(0.0000°N, 0.0000°E)
Time: 01:52:28
(UTC+00:00)
Language:

STARLINK-11351 [DTC] - Orbit

View from above orbital plane
View from above orbital plane
View from above satellite
View from above satellite

Ground track
Ground track

The orbit is defined by the following mean orbital elements,

1 61886U          26145.25318836 +.00000000 +00000-0 +10769-4 0 00003
2 61886  53.1577 338.5453 0000809  78.2538 281.8570 15.69708731    08
Epoch (UTC): 25 May 2026 06:04:35
Eccentricity: 0.0000809
inclination: 53.1577°
perigee height: 359 km
apogee height: 360 km
right ascension of ascending node: 338.5453°
argument of perigee: 78.2538°
revolutions per day: 15.69708731
mean anomaly at epoch: 281.8570°

The dashed part of the orbit path shows where the satellite is in the earth's shadow,  

DLR